Location: ???????????
(54.5822°N, 39.1075°E)
Time: 17:06:40
(UTC+00:00)

Cosmos 1048 Rocket - Pass Details

Date: 19 May 2025
Orbit: 739 x 787 km, 74.0° (Epoch: 21 June)

Event Time Altitude Azimuth Distance (km) Brightness Sun altitude
Exits shadow 22:39:53 20° 189° (S) 1,680 5.1 -13.5°
Maximum altitude 22:43:24 65° 112° (ESE) 815 4.1 -13.3°
Drops below altitude 10° 22:48:28 10° 31° (NNE) 2,266 7.9 -13.1°
Sets 22:50:51 0° 29° (NNE) 3,197 9.2 -12.9°
